User: anonymous   Login
Location: Guayaquil
(2.1667°S, 79.9000°W)
Time: 10:08:34
(UTC-05:00)
Language:

NEE 01 PEGASUS - Orbit

View from above orbital plane
View from above orbital plane
View from above satellite
View from above satellite

Ground track
Ground track

The orbit data is extracted from the following two-line orbital elements,

1 39151U 13018B   21024.17906160  .00000158  00000-0  27630-4 0  9997
2 39151  97.9758 127.5524 0018387 104.8612 255.4638 14.80274572418333
Epoch (UTC): 24 January 2021 04:17:50
Eccentricity: 0.0018387
inclination: 97.9758°
perigee height: 615 km
apogee height: 641 km
right ascension of ascending node: 127.5524°
argument of perigee: 104.8612°
revolutions per day: 14.80274572
mean anomaly at epoch: 255.4638°
orbit number at epoch: 41833

The dashed part of the orbit path shows where the satellite is in the earth's shadow,  

DLR